#datetime,building,power
2024-03-12T00:00:00,pth,4.80
2024-03-12T00:02:00,pth,4.80
2024-03-12T00:03:00,pth,2.40
2024-03-12T00:05:00,pth,6.00
2024-03-12T00:06:00,pth,2.40
2024-03-12T00:08:00,pth,4.80
2024-03-12T00:10:00,pth,4.80
2024-03-12T00:12:00,pth,4.80
2024-03-12T00:14:00,pth,4.80
2024-03-12T00:15:00,pth,2.40
2024-03-12T00:17:00,pth,4.80
2024-03-12T00:19:00,pth,6.00
2024-03-12T00:21:00,pth,4.80
2024-03-12T00:23:00,pth,6.00
2024-03-12T00:25:00,pth,4.80
2024-03-12T00:26:00,pth,2.40
2024-03-12T00:28:00,pth,4.80
2024-03-12T00:30:00,pth,4.80
2024-03-12T00:31:00,pth,2.40
2024-03-12T00:33:00,pth,6.00
2024-03-12T00:35:00,pth,4.80
2024-03-12T00:37:00,pth,4.80
2024-03-12T00:39:00,pth,6.00
2024-03-12T00:41:00,pth,4.80
2024-03-12T00:43:00,pth,4.80
2024-03-12T00:45:00,pth,4.80
2024-03-12T00:47:00,pth,6.00
2024-03-12T00:49:00,pth,4.80
2024-03-12T00:51:00,pth,4.80
2024-03-12T00:53:00,pth,4.80
2024-03-12T00:55:00,pth,4.80
2024-03-12T00:57:00,pth,6.00
2024-03-12T00:59:00,pth,4.80
2024-03-12T01:00:00,pth,2.40
2024-03-12T01:02:00,pth,4.80
2024-03-12T01:03:00,pth,2.40
2024-03-12T01:05:00,pth,4.80
2024-03-12T01:07:00,pth,4.80
2024-03-12T01:09:00,pth,4.80
2024-03-12T01:11:00,pth,6.00
2024-03-12T01:13:00,pth,4.80
2024-03-12T01:15:00,pth,4.80
2024-03-12T01:16:00,pth,2.40
2024-03-12T01:18:00,pth,4.80
2024-03-12T01:19:00,pth,2.40
2024-03-12T01:21:00,pth,3.60
2024-03-12T01:23:00,pth,4.80
2024-03-12T01:25:00,pth,4.80
2024-03-12T01:27:00,pth,4.80
2024-03-12T01:29:00,pth,3.60
2024-03-12T01:31:00,pth,4.80
2024-03-12T01:32:00,pth,2.40
2024-03-12T01:33:00,pth,2.40
2024-03-12T01:35:00,pth,4.80
2024-03-12T01:36:00,pth,2.40
2024-03-12T01:38:00,pth,6.00
2024-03-12T01:40:00,pth,4.80
2024-03-12T01:42:00,pth,4.80
2024-03-12T01:43:00,pth,2.40
2024-03-12T01:45:00,pth,4.80
2024-03-12T01:46:00,pth,2.40
2024-03-12T01:47:00,pth,1.20
2024-03-12T01:49:00,pth,4.80
2024-03-12T01:50:00,pth,2.40
2024-03-12T01:52:00,pth,4.80
2024-03-12T01:54:00,pth,4.80
2024-03-12T01:56:00,pth,4.80
2024-03-12T01:57:00,pth,2.40
2024-03-12T01:58:00,pth,2.40
2024-03-12T02:00:00,pth,4.80
2024-03-12T02:02:00,pth,3.60
2024-03-12T02:03:00,pth,2.40
2024-03-12T02:05:00,pth,4.80
2024-03-12T02:06:00,pth,2.40
2024-03-12T02:08:00,pth,4.80
2024-03-12T02:10:00,pth,3.60
2024-03-12T02:11:00,pth,2.40
2024-03-12T02:13:00,pth,4.80
2024-03-12T02:14:00,pth,2.40
2024-03-12T02:16:00,pth,3.60
2024-03-12T02:18:00,pth,4.80
2024-03-12T02:20:00,pth,3.60
2024-03-12T02:22:00,pth,4.80
2024-03-12T02:23:00,pth,1.20
2024-03-12T02:25:00,pth,4.80
2024-03-12T02:27:00,pth,3.60
2024-03-12T02:28:00,pth,2.40
2024-03-12T02:30:00,pth,4.80
2024-03-12T02:32:00,pth,3.60
2024-03-12T02:34:00,pth,4.80
2024-03-12T02:35:00,pth,2.40
2024-03-12T02:36:00,pth,2.40
2024-03-12T02:38:00,pth,4.80
2024-03-12T02:40:00,pth,4.80
2024-03-12T02:42:00,pth,6.00
2024-03-12T02:44:00,pth,4.80
2024-03-12T02:46:00,pth,4.80
2024-03-12T02:48:00,pth,4.80
2024-03-12T02:49:00,pth,2.40
2024-03-12T02:51:00,pth,3.60
2024-03-12T02:53:00,pth,4.80
2024-03-12T02:54:00,pth,2.40
2024-03-12T02:56:00,pth,4.80
2024-03-12T02:58:00,pth,4.80
2024-03-12T03:00:00,pth,4.80
2024-03-12T03:01:00,pth,1.20
2024-03-12T03:03:00,pth,4.80
2024-03-12T03:05:00,pth,4.80
2024-03-12T03:07:00,pth,4.80
2024-03-12T03:08:00,pth,2.40
2024-03-12T03:09:00,pth,1.20
2024-03-12T03:11:00,pth,4.80
2024-03-12T03:13:00,pth,4.80
2024-03-12T03:14:00,pth,2.40
2024-03-12T03:15:00,pth,2.40
2024-03-12T03:17:00,pth,4.80
2024-03-12T03:18:00,pth,2.40
2024-03-12T03:20:00,pth,4.80
2024-03-12T03:22:00,pth,4.80
2024-03-12T03:23:00,pth,1.20
2024-03-12T03:25:00,pth,4.80
2024-03-12T03:26:00,pth,2.40
2024-03-12T03:28:00,pth,3.60
2024-03-12T03:29:00,pth,2.40
2024-03-12T03:31:00,pth,4.80
2024-03-12T03:33:00,pth,4.80
2024-03-12T03:34:00,pth,2.40
2024-03-12T03:36:00,pth,4.80
2024-03-12T03:38:00,pth,3.60
2024-03-12T03:40:00,pth,4.80
2024-03-12T03:42:00,pth,3.60
2024-03-12T03:44:00,pth,4.80
2024-03-12T03:45:00,pth,2.40
2024-03-12T03:46:00,pth,1.20
2024-03-12T03:48:00,pth,4.80
2024-03-12T03:50:00,pth,3.60
2024-03-12T03:52:00,pth,4.80
2024-03-12T03:53:00,pth,1.20
2024-03-12T03:54:00,pth,2.40
2024-03-12T03:56:00,pth,4.80
2024-03-12T03:57:00,pth,1.20
2024-03-12T03:59:00,pth,4.80
2024-03-12T04:01:00,pth,4.80
2024-03-12T04:03:00,pth,4.80
2024-03-12T04:04:00,pth,2.40
2024-03-12T04:06:00,pth,3.60
2024-03-12T04:08:00,pth,4.80
2024-03-12T04:10:00,pth,4.80
2024-03-12T04:11:00,pth,2.40
2024-03-12T04:13:00,pth,3.60
2024-03-12T04:14:00,pth,2.40
2024-03-12T04:16:00,pth,3.60
2024-03-12T04:17:00,pth,2.40
2024-03-12T04:19:00,pth,4.80
2024-03-12T04:20:00,pth,1.20
2024-03-12T04:22:00,pth,4.80
2024-03-12T04:23:00,pth,1.20
2024-03-12T04:25:00,pth,4.80
2024-03-12T04:27:00,pth,4.80
2024-03-12T04:28:00,pth,1.20
2024-03-12T04:30:00,pth,4.80
2024-03-12T04:32:00,pth,3.60
2024-03-12T04:34:00,pth,3.60
2024-03-12T04:35:00,pth,2.40
2024-03-12T04:36:00,pth,2.40
2024-03-12T04:37:00,pth,2.40
2024-03-12T04:39:00,pth,3.60
2024-03-12T04:40:00,pth,2.40
2024-03-12T04:42:00,pth,4.80
2024-03-12T04:44:00,pth,3.60
2024-03-12T04:46:00,pth,4.80
2024-03-12T04:48:00,pth,3.60
2024-03-12T04:49:00,pth,2.40
2024-03-12T04:51:00,pth,3.60
2024-03-12T04:53:00,pth,4.80
2024-03-12T04:55:00,pth,3.60
2024-03-12T04:56:00,pth,2.40
2024-03-12T04:58:00,pth,3.60
2024-03-12T04:59:00,pth,2.40
2024-03-12T05:00:00,pth,2.40
2024-03-12T05:02:00,pth,3.60
2024-03-12T05:04:00,pth,3.60
2024-03-12T05:06:00,pth,4.80
2024-03-12T05:08:00,pth,3.60
2024-03-12T05:09:00,pth,2.40
2024-03-12T05:11:00,pth,3.60
2024-03-12T05:13:00,pth,4.80
2024-03-12T05:15:00,pth,3.60
2024-03-12T05:16:00,pth,2.40
2024-03-12T05:18:00,pth,3.60
2024-03-12T05:19:00,pth,2.40
2024-03-12T05:21:00,pth,3.60
2024-03-12T05:23:00,pth,4.80
2024-03-12T05:25:00,pth,3.60
2024-03-12T05:27:00,pth,3.60
2024-03-12T05:29:00,pth,4.80
2024-03-12T05:31:00,pth,4.80
2024-03-12T05:33:00,pth,3.60
2024-03-12T05:35:00,pth,4.80
2024-03-12T05:37:00,pth,3.60
2024-03-12T05:39:00,pth,4.80
2024-03-12T05:40:00,pth,2.40
2024-03-12T05:41:00,pth,2.40
2024-03-12T05:43:00,pth,3.60
2024-03-12T05:44:00,pth,2.40
2024-03-12T05:46:00,pth,3.60
2024-03-12T05:48:00,pth,3.60
2024-03-12T05:50:00,pth,4.80
2024-03-12T05:52:00,pth,3.60
2024-03-12T05:53:00,pth,2.40
2024-03-12T05:55:00,pth,3.60
2024-03-12T05:56:00,pth,2.40
2024-03-12T05:58:00,pth,3.60
2024-03-12T05:59:00,pth,2.40
2024-03-12T06:01:00,pth,3.60
2024-03-12T06:03:00,pth,3.60
2024-03-12T06:04:00,pth,2.40
2024-03-12T06:06:00,pth,4.80
2024-03-12T06:08:00,pth,3.60
2024-03-12T06:10:00,pth,3.60
2024-03-12T06:12:00,pth,4.80
2024-03-12T06:14:00,pth,4.80
2024-03-12T06:16:00,pth,4.80
2024-03-12T06:17:00,pth,1.20
2024-03-12T06:19:00,pth,4.80
2024-03-12T06:20:00,pth,2.40
2024-03-12T06:21:00,pth,2.40
2024-03-12T06:23:00,pth,3.60
2024-03-12T06:24:00,pth,2.40
2024-03-12T06:25:00,pth,2.40
2024-03-12T06:26:00,pth,2.40
2024-03-12T06:28:00,pth,3.60
2024-03-12T06:30:00,pth,4.80
2024-03-12T06:32:00,pth,3.60
2024-03-12T06:34:00,pth,3.60
2024-03-12T06:36:00,pth,4.80
2024-03-12T06:38:00,pth,3.60
2024-03-12T06:40:00,pth,4.80
2024-03-12T06:42:00,pth,4.80
2024-03-12T06:44:00,pth,3.60
2024-03-12T06:45:00,pth,2.40
2024-03-12T06:46:00,pth,2.40
2024-03-12T06:48:00,pth,3.60
2024-03-12T06:49:00,pth,2.40
2024-03-12T06:50:00,pth,1.20
2024-03-12T06:52:00,pth,4.80
2024-03-12T06:54:00,pth,4.80
2024-03-12T06:55:00,pth,1.20
2024-03-12T06:57:00,pth,4.80
2024-03-12T06:58:00,pth,2.40
2024-03-12T07:00:00,pth,3.60
2024-03-12T07:01:00,pth,2.40
2024-03-12T07:03:00,pth,4.80
2024-03-12T07:05:00,pth,4.80
2024-03-12T07:07:00,pth,4.80
2024-03-12T07:09:00,pth,4.80
2024-03-12T07:11:00,pth,4.80
2024-03-12T07:12:00,pth,2.40
2024-03-12T07:14:00,pth,3.60
2024-03-12T07:16:00,pth,4.80
2024-03-12T07:18:00,pth,3.60
2024-03-12T07:19:00,pth,1.20
2024-03-12T07:20:00,pth,2.40
2024-03-12T07:22:00,pth,3.60
2024-03-12T07:24:00,pth,3.60
2024-03-12T07:26:00,pth,3.60
2024-03-12T07:28:00,pth,6.00
2024-03-12T07:30:00,pth,6.00
2024-03-12T07:32:00,pth,2.40
2024-03-12T07:33:00,pth,2.40
2024-03-12T07:35:00,pth,2.40
2024-03-12T07:37:00,pth,4.80
2024-03-12T07:39:00,pth,3.60
2024-03-12T07:40:00,pth,2.40
2024-03-12T07:42:00,pth,3.60
2024-03-12T07:44:00,pth,3.60
2024-03-12T07:46:00,pth,3.60
2024-03-12T07:48:00,pth,3.60
2024-03-12T07:50:00,pth,3.60
2024-03-12T07:52:00,pth,3.60
2024-03-12T07:54:00,pth,3.60
2024-03-12T07:56:00,pth,3.60
2024-03-12T07:58:00,pth,2.40
2024-03-12T07:59:00,pth,2.40
2024-03-12T08:01:00,pth,3.60
2024-03-12T08:03:00,pth,3.60
2024-03-12T08:05:00,pth,3.60
2024-03-12T08:06:00,pth,2.40
2024-03-12T08:08:00,pth,4.80
2024-03-12T08:10:00,pth,3.60
2024-03-12T08:12:00,pth,4.80
2024-03-12T08:14:00,pth,3.60
2024-03-12T08:16:00,pth,3.60
2024-03-12T08:18:00,pth,3.60
2024-03-12T08:19:00,pth,2.40
2024-03-12T08:21:00,pth,3.60
2024-03-12T08:23:00,pth,3.60
2024-03-12T08:25:00,pth,2.40
2024-03-12T08:26:00,pth,2.40
2024-03-12T08:28:00,pth,4.80
2024-03-12T08:29:00,pth,2.40
2024-03-12T08:31:00,pth,3.60
2024-03-12T08:33:00,pth,4.80
2024-03-12T08:35:00,pth,3.60
2024-03-12T08:37:00,pth,3.60
2024-03-12T08:38:00,pth,2.40
2024-03-12T08:40:00,pth,3.60
2024-03-12T08:41:00,pth,1.20
2024-03-12T08:43:00,pth,3.60
2024-03-12T08:44:00,pth,2.40
2024-03-12T08:45:00,pth,3.60
2024-03-12T08:47:00,pth,6.00
2024-03-12T08:48:00,pth,2.40
2024-03-12T08:50:00,pth,3.60
2024-03-12T08:51:00,pth,1.20
2024-03-12T08:53:00,pth,4.80
2024-03-12T08:55:00,pth,3.60
2024-03-12T08:56:00,pth,2.40
2024-03-12T08:58:00,pth,3.60
2024-03-12T09:00:00,pth,4.80
2024-03-12T09:01:00,pth,1.20
2024-03-12T09:03:00,pth,4.80
2024-03-12T09:05:00,pth,6.00
2024-03-12T09:07:00,pth,9.60
2024-03-12T09:09:00,pth,7.20
2024-03-12T09:11:00,pth,8.40
2024-03-12T09:13:00,pth,6.00
2024-03-12T09:14:00,pth,2.40
2024-03-12T09:16:00,pth,7.20
2024-03-12T09:18:00,pth,4.80
2024-03-12T09:19:00,pth,2.40
2024-03-12T09:21:00,pth,6.00
2024-03-12T09:23:00,pth,6.00
2024-03-12T09:25:00,pth,6.00
2024-03-12T09:27:00,pth,6.00
2024-03-12T09:29:00,pth,4.80
2024-03-12T09:31:00,pth,6.00
2024-03-12T09:33:00,pth,4.80
2024-03-12T09:34:00,pth,1.20
2024-03-12T09:36:00,pth,4.80
2024-03-12T09:38:00,pth,3.60
2024-03-12T09:39:00,pth,2.40
2024-03-12T09:41:00,pth,4.80
2024-03-12T09:42:00,pth,1.20
2024-03-12T09:44:00,pth,4.80
2024-03-12T09:46:00,pth,4.80
2024-03-12T09:48:00,pth,3.60
2024-03-12T09:49:00,pth,1.20
2024-03-12T09:51:00,pth,3.60
2024-03-12T09:53:00,pth,3.60
2024-03-12T09:54:00,pth,2.40
2024-03-12T09:56:00,pth,3.60
2024-03-12T09:58:00,pth,3.60
2024-03-12T10:00:00,pth,4.80
2024-03-12T10:01:00,pth,1.20
2024-03-12T10:03:00,pth,4.80
2024-03-12T10:04:00,pth,2.40
2024-03-12T10:05:00,pth,2.40
2024-03-12T10:07:00,pth,4.80
2024-03-12T10:09:00,pth,3.60
2024-03-12T10:10:00,pth,2.40
2024-03-12T10:12:00,pth,6.00
2024-03-12T10:14:00,pth,4.80
2024-03-12T10:15:00,pth,2.40
2024-03-12T10:17:00,pth,7.20
2024-03-12T10:18:00,pth,2.40
2024-03-12T10:20:00,pth,7.20
2024-03-12T10:21:00,pth,3.60
2024-03-12T10:23:00,pth,6.00
2024-03-12T10:25:00,pth,4.80
2024-03-12T10:26:00,pth,2.40
2024-03-12T10:28:00,pth,3.60
2024-03-12T10:30:00,pth,4.80
2024-03-12T10:31:00,pth,2.40
2024-03-12T10:33:00,pth,3.60
2024-03-12T10:34:00,pth,2.40
2024-03-12T10:35:00,pth,2.40
2024-03-12T10:36:00,pth,1.20
2024-03-12T10:37:00,pth,2.40
2024-03-12T10:39:00,pth,3.60
2024-03-12T10:40:00,pth,1.20
2024-03-12T10:42:00,pth,3.60
2024-03-12T10:44:00,pth,3.60
2024-03-12T10:45:00,pth,1.20
2024-03-12T10:46:00,pth,2.40
2024-03-12T10:48:00,pth,3.60
2024-03-12T10:50:00,pth,3.60
2024-03-12T10:52:00,pth,4.80
2024-03-12T10:54:00,pth,3.60
2024-03-12T10:56:00,pth,3.60
2024-03-12T10:58:00,pth,3.60
2024-03-12T11:00:00,pth,3.60
2024-03-12T11:01:00,pth,2.40
2024-03-12T11:03:00,pth,3.60
2024-03-12T11:05:00,pth,3.60
2024-03-12T11:07:00,pth,4.80
2024-03-12T11:08:00,pth,1.20
2024-03-12T11:09:00,pth,2.40
2024-03-12T11:11:00,pth,3.60
2024-03-12T11:13:00,pth,3.60
2024-03-12T11:15:00,pth,3.60
2024-03-12T11:17:00,pth,3.60
2024-03-12T11:19:00,pth,3.60
2024-03-12T11:21:00,pth,3.60
2024-03-12T11:23:00,pth,3.60
2024-03-12T11:24:00,pth,1.20
2024-03-12T11:25:00,pth,2.40
2024-03-12T11:27:00,pth,3.60
2024-03-12T11:29:00,pth,3.60
2024-03-12T11:31:00,pth,3.60
2024-03-12T11:33:00,pth,3.60
2024-03-12T11:34:00,pth,2.40
2024-03-12T11:36:00,pth,3.60
2024-03-12T11:37:00,pth,2.40
2024-03-12T11:39:00,pth,3.60
2024-03-12T11:41:00,pth,3.60
2024-03-12T11:42:00,pth,2.40
2024-03-12T11:44:00,pth,3.60
2024-03-12T11:46:00,pth,3.60
2024-03-12T11:48:00,pth,3.60
2024-03-12T11:49:00,pth,2.40
2024-03-12T11:51:00,pth,6.00
2024-03-12T11:53:00,pth,4.80
2024-03-12T11:55:00,pth,3.60
2024-03-12T11:57:00,pth,4.80
2024-03-12T11:59:00,pth,4.80
2024-03-12T12:01:00,pth,4.80
2024-03-12T12:03:00,pth,3.60
2024-03-12T12:05:00,pth,3.60
2024-03-12T12:06:00,pth,2.40
2024-03-12T12:08:00,pth,4.80
2024-03-12T12:09:00,pth,2.40
2024-03-12T12:11:00,pth,3.60
2024-03-12T12:13:00,pth,4.80
2024-03-12T12:14:00,pth,2.40
2024-03-12T12:16:00,pth,3.60
2024-03-12T12:17:00,pth,2.40
2024-03-12T12:19:00,pth,4.80
2024-03-12T12:20:00,pth,1.20
2024-03-12T12:22:00,pth,4.80
2024-03-12T12:24:00,pth,4.80
2024-03-12T12:26:00,pth,6.00
2024-03-12T12:27:00,pth,2.40
2024-03-12T12:28:00,pth,1.20
2024-03-12T12:30:00,pth,4.80
2024-03-12T12:31:00,pth,2.40
2024-03-12T12:33:00,pth,3.60
2024-03-12T12:35:00,pth,4.80
2024-03-12T12:36:00,pth,2.40
2024-03-12T12:37:00,pth,2.40
2024-03-12T12:39:00,pth,4.80
2024-03-12T12:40:00,pth,2.40
2024-03-12T12:42:00,pth,4.80
2024-03-12T12:43:00,pth,2.40
2024-03-12T12:45:00,pth,3.60
2024-03-12T12:46:00,pth,2.40
2024-03-12T12:48:00,pth,3.60
2024-03-12T12:50:00,pth,4.80
2024-03-12T12:51:00,pth,1.20
2024-03-12T12:52:00,pth,2.40
2024-03-12T12:54:00,pth,3.60
2024-03-12T12:56:00,pth,3.60
2024-03-12T12:58:00,pth,3.60
2024-03-12T12:59:00,pth,2.40
2024-03-12T13:01:00,pth,3.60
2024-03-12T13:02:00,pth,2.40
2024-03-12T13:04:00,pth,4.80
2024-03-12T13:06:00,pth,3.60
2024-03-12T13:08:00,pth,4.80
2024-03-12T13:09:00,pth,1.20
2024-03-12T13:11:00,pth,4.80
2024-03-12T13:13:00,pth,4.80
2024-03-12T13:14:00,pth,2.40
2024-03-12T13:16:00,pth,3.60
2024-03-12T13:17:00,pth,2.40
2024-03-12T13:19:00,pth,3.60
2024-03-12T13:20:00,pth,2.40
2024-03-12T13:21:00,pth,2.40
2024-03-12T13:23:00,pth,3.60
2024-03-12T13:25:00,pth,3.60
2024-03-12T13:27:00,pth,4.80
2024-03-12T13:28:00,pth,1.20
2024-03-12T13:30:00,pth,4.80
2024-03-12T13:32:00,pth,3.60
2024-03-12T13:34:00,pth,3.60
2024-03-12T13:35:00,pth,1.20
2024-03-12T13:36:00,pth,2.40
2024-03-12T13:38:00,pth,3.60
2024-03-12T13:40:00,pth,3.60
2024-03-12T13:42:00,pth,3.60
2024-03-12T13:43:00,pth,2.40
2024-03-12T13:45:00,pth,3.60
2024-03-12T13:46:00,pth,1.20
2024-03-12T13:48:00,pth,4.80
2024-03-12T13:50:00,pth,3.60
2024-03-12T13:52:00,pth,3.60
2024-03-12T13:54:00,pth,3.60
2024-03-12T13:56:00,pth,4.80
2024-03-12T13:58:00,pth,3.60
2024-03-12T14:00:00,pth,3.60
2024-03-12T14:02:00,pth,3.60
2024-03-12T14:04:00,pth,3.60
2024-03-12T14:05:00,pth,2.40
2024-03-12T14:06:00,pth,1.20
2024-03-12T14:08:00,pth,3.60
2024-03-12T14:10:00,pth,3.60
2024-03-12T14:12:00,pth,4.80
2024-03-12T14:14:00,pth,3.60
2024-03-12T14:15:00,pth,2.40
2024-03-12T14:16:00,pth,2.40
2024-03-12T14:18:00,pth,3.60
2024-03-12T14:20:00,pth,3.60
2024-03-12T14:22:00,pth,4.80
2024-03-12T14:23:00,pth,1.20
2024-03-12T14:25:00,pth,3.60
2024-03-12T14:26:00,pth,2.40
2024-03-12T14:28:00,pth,3.60
2024-03-12T14:30:00,pth,2.40
2024-03-12T14:32:00,pth,3.60
2024-03-12T14:33:00,pth,2.40
2024-03-12T14:35:00,pth,6.00
2024-03-12T14:36:00,pth,1.20
2024-03-12T14:37:00,pth,2.40
2024-03-12T14:39:00,pth,4.80
2024-03-12T14:41:00,pth,3.60
2024-03-12T14:43:00,pth,4.80
2024-03-12T14:45:00,pth,3.60
2024-03-12T14:47:00,pth,4.80
2024-03-12T14:49:00,pth,4.80
2024-03-12T14:50:00,pth,1.20
2024-03-12T14:52:00,pth,4.80
2024-03-12T14:53:00,pth,1.20
2024-03-12T14:55:00,pth,4.80
2024-03-12T14:56:00,pth,1.20
2024-03-12T14:58:00,pth,3.60
2024-03-12T14:59:00,pth,2.40
2024-03-12T15:00:00,pth,2.40
2024-03-12T15:01:00,pth,1.20
2024-03-12T15:03:00,pth,4.80
2024-03-12T15:04:00,pth,1.20
2024-03-12T15:06:00,pth,3.60
2024-03-12T15:07:00,pth,2.40
2024-03-12T15:09:00,pth,3.60
2024-03-12T15:11:00,pth,3.60
2024-03-12T15:13:00,pth,3.60
2024-03-12T15:15:00,pth,3.60
2024-03-12T15:17:00,pth,4.80
2024-03-12T15:19:00,pth,3.60
2024-03-12T15:20:00,pth,2.40
2024-03-12T15:21:00,pth,2.40
2024-03-12T15:23:00,pth,3.60
2024-03-12T15:24:00,pth,2.40
2024-03-12T15:26:00,pth,4.80
2024-03-12T15:28:00,pth,3.60
2024-03-12T15:30:00,pth,4.80
2024-03-12T15:32:00,pth,3.60
2024-03-12T15:34:00,pth,4.80
2024-03-12T15:35:00,pth,2.40
2024-03-12T15:37:00,pth,4.80
2024-03-12T15:38:00,pth,2.40
2024-03-12T15:39:00,pth,1.20
2024-03-12T15:41:00,pth,4.80
2024-03-12T15:43:00,pth,3.60
2024-03-12T15:45:00,pth,4.80
2024-03-12T15:47:00,pth,4.80
2024-03-12T15:49:00,pth,4.80
2024-03-12T15:51:00,pth,3.60
2024-03-12T15:53:00,pth,4.80
2024-03-12T15:55:00,pth,4.80
2024-03-12T15:57:00,pth,4.80
2024-03-12T15:59:00,pth,4.80
2024-03-12T16:01:00,pth,4.80
2024-03-12T16:03:00,pth,3.60
2024-03-12T16:04:00,pth,7.20
2024-03-12T16:06:00,pth,14.40
2024-03-12T16:08:00,pth,15.60
2024-03-12T16:10:00,pth,15.60
2024-03-12T16:11:00,pth,7.20
2024-03-12T16:13:00,pth,15.60
2024-03-12T16:14:00,pth,8.40
2024-03-12T16:15:00,pth,7.20
2024-03-12T16:17:00,pth,15.60
2024-03-12T16:18:00,pth,7.20
2024-03-12T16:19:00,pth,8.40
2024-03-12T16:21:00,pth,15.60
2024-03-12T16:23:00,pth,15.60
2024-03-12T16:25:00,pth,15.60
2024-03-12T16:26:00,pth,7.20
2024-03-12T16:28:00,pth,15.60
2024-03-12T16:30:00,pth,12.00
2024-03-12T16:31:00,pth,7.20
2024-03-12T16:33:00,pth,14.40
2024-03-12T16:35:00,pth,12.00
2024-03-12T16:36:00,pth,7.20
2024-03-12T16:38:00,pth,12.00
2024-03-12T16:40:00,pth,9.60
2024-03-12T16:42:00,pth,12.00
2024-03-12T16:44:00,pth,13.20
2024-03-12T16:46:00,pth,10.80
2024-03-12T16:48:00,pth,10.80
2024-03-12T16:49:00,pth,7.20
2024-03-12T16:51:00,pth,9.60
2024-03-12T16:53:00,pth,10.80
2024-03-12T16:55:00,pth,9.60
2024-03-12T16:57:00,pth,12.00
2024-03-12T16:58:00,pth,6.00
2024-03-12T17:00:00,pth,9.60
2024-03-12T17:01:00,pth,3.60
2024-03-12T17:03:00,pth,4.80
2024-03-12T17:04:00,pth,1.20
2024-03-12T17:06:00,pth,4.80
2024-03-12T17:07:00,pth,4.80
2024-03-12T17:09:00,pth,15.60
2024-03-12T17:10:00,pth,7.20
2024-03-12T17:11:00,pth,8.40
2024-03-12T17:13:00,pth,14.40
2024-03-12T17:15:00,pth,15.60
2024-03-12T17:16:00,pth,7.20
2024-03-12T17:18:00,pth,15.60
2024-03-12T17:19:00,pth,8.40
2024-03-12T17:20:00,pth,8.40
2024-03-12T17:22:00,pth,15.60
2024-03-12T17:23:00,pth,7.20
2024-03-12T17:24:00,pth,8.40
2024-03-12T17:26:00,pth,15.60
2024-03-12T17:28:00,pth,15.60
2024-03-12T17:29:00,pth,8.40
2024-03-12T17:31:00,pth,10.80
2024-03-12T17:33:00,pth,14.40
2024-03-12T17:35:00,pth,12.00
2024-03-12T17:36:00,pth,7.20
2024-03-12T17:38:00,pth,12.00
2024-03-12T17:40:00,pth,10.80
2024-03-12T17:42:00,pth,13.20
2024-03-12T17:43:00,pth,3.60
2024-03-12T17:45:00,pth,12.00
2024-03-12T17:46:00,pth,6.00
2024-03-12T17:48:00,pth,10.80
2024-03-12T17:49:00,pth,7.20
2024-03-12T17:50:00,pth,4.80
2024-03-12T17:52:00,pth,13.20
2024-03-12T17:54:00,pth,10.80
2024-03-12T17:55:00,pth,4.80
2024-03-12T17:57:00,pth,12.00
2024-03-12T17:59:00,pth,10.80
2024-03-12T18:00:00,pth,3.60
2024-03-12T18:02:00,pth,13.20
2024-03-12T18:04:00,pth,6.00
2024-03-12T18:06:00,pth,4.80
2024-03-12T18:08:00,pth,3.60
2024-03-12T18:10:00,pth,4.80
2024-03-12T18:11:00,pth,2.40
2024-03-12T18:13:00,pth,4.80
2024-03-12T18:15:00,pth,4.80
2024-03-12T18:16:00,pth,1.20
2024-03-12T18:18:00,pth,4.80
2024-03-12T18:20:00,pth,3.60
2024-03-12T18:22:00,pth,3.60
2024-03-12T18:23:00,pth,1.20
2024-03-12T18:25:00,pth,4.80
2024-03-12T18:26:00,pth,2.40
2024-03-12T18:28:00,pth,4.80
2024-03-12T18:29:00,pth,2.40
2024-03-12T18:31:00,pth,3.60
2024-03-12T18:33:00,pth,4.80
2024-03-12T18:34:00,pth,2.40
2024-03-12T18:36:00,pth,3.60
2024-03-12T18:38:00,pth,4.80
2024-03-12T18:39:00,pth,1.20
2024-03-12T18:41:00,pth,4.80
2024-03-12T18:42:00,pth,2.40
2024-03-12T18:44:00,pth,3.60
2024-03-12T18:45:00,pth,2.40
2024-03-12T18:47:00,pth,3.60
2024-03-12T18:48:00,pth,2.40
2024-03-12T18:50:00,pth,3.60
2024-03-12T18:51:00,pth,2.40
2024-03-12T18:53:00,pth,8.40
2024-03-12T18:55:00,pth,15.60
2024-03-12T18:57:00,pth,15.60
2024-03-12T18:58:00,pth,8.40
2024-03-12T19:00:00,pth,15.60
2024-03-12T19:02:00,pth,16.80
2024-03-12T19:03:00,pth,8.40
2024-03-12T19:05:00,pth,16.80
2024-03-12T19:07:00,pth,16.80
2024-03-12T19:09:00,pth,15.60
2024-03-12T19:10:00,pth,8.40
2024-03-12T19:11:00,pth,8.40
2024-03-12T19:12:00,pth,8.40
2024-03-12T19:14:00,pth,16.80
2024-03-12T19:16:00,pth,15.60
2024-03-12T19:18:00,pth,16.80
2024-03-12T19:20:00,pth,15.60
2024-03-12T19:21:00,pth,8.40
2024-03-12T19:23:00,pth,16.80
2024-03-12T19:24:00,pth,8.40
2024-03-12T19:26:00,pth,15.60
2024-03-12T19:28:00,pth,15.60
2024-03-12T19:30:00,pth,15.60
2024-03-12T19:32:00,pth,16.80
2024-03-12T19:33:00,pth,7.20
2024-03-12T19:35:00,pth,15.60
2024-03-12T19:36:00,pth,8.40
2024-03-12T19:37:00,pth,7.20
2024-03-12T19:38:00,pth,8.40
2024-03-12T19:40:00,pth,15.60
2024-03-12T19:42:00,pth,15.60
2024-03-12T19:43:00,pth,8.40
2024-03-12T19:45:00,pth,16.80
2024-03-12T19:47:00,pth,15.60
2024-03-12T19:48:00,pth,8.40
2024-03-12T19:50:00,pth,15.60
2024-03-12T19:51:00,pth,8.40
2024-03-12T19:53:00,pth,6.00
2024-03-12T19:54:00,pth,2.40
2024-03-12T19:56:00,pth,4.80
2024-03-12T19:58:00,pth,4.80
2024-03-12T19:59:00,pth,2.40
2024-03-12T20:01:00,pth,6.00
2024-03-12T20:03:00,pth,4.80
2024-03-12T20:05:00,pth,3.60
2024-03-12T20:07:00,pth,6.00
2024-03-12T20:09:00,pth,4.80
2024-03-12T20:11:00,pth,10.80
2024-03-12T20:13:00,pth,15.60
2024-03-12T20:15:00,pth,16.80
2024-03-12T20:16:00,pth,8.40
2024-03-12T20:18:00,pth,15.60
2024-03-12T20:19:00,pth,7.20
2024-03-12T20:20:00,pth,8.40
2024-03-12T20:22:00,pth,15.60
2024-03-12T20:24:00,pth,15.60
2024-03-12T20:25:00,pth,8.40
2024-03-12T20:27:00,pth,15.60
2024-03-12T20:28:00,pth,8.40
2024-03-12T20:30:00,pth,15.60
2024-03-12T20:31:00,pth,8.40
2024-03-12T20:33:00,pth,14.40
2024-03-12T20:34:00,pth,8.40
2024-03-12T20:36:00,pth,15.60
2024-03-12T20:38:00,pth,16.80
2024-03-12T20:39:00,pth,9.60
2024-03-12T20:41:00,pth,19.20
2024-03-12T20:43:00,pth,19.20
2024-03-12T20:45:00,pth,19.20
2024-03-12T20:46:00,pth,9.60
2024-03-12T20:48:00,pth,16.80
2024-03-12T20:50:00,pth,16.80
2024-03-12T20:52:00,pth,16.80
2024-03-12T20:54:00,pth,16.80
2024-03-12T20:56:00,pth,18.00
2024-03-12T20:57:00,pth,8.40
2024-03-12T20:59:00,pth,16.80
2024-03-12T21:01:00,pth,16.80
2024-03-12T21:03:00,pth,13.20
2024-03-12T21:05:00,pth,14.40
2024-03-12T21:07:00,pth,16.80
2024-03-12T21:09:00,pth,18.00
2024-03-12T21:11:00,pth,7.20
2024-03-12T21:13:00,pth,6.00
2024-03-12T21:15:00,pth,16.80
2024-03-12T21:17:00,pth,16.80
2024-03-12T21:18:00,pth,7.20
2024-03-12T21:20:00,pth,16.80
2024-03-12T21:21:00,pth,8.40
2024-03-12T21:23:00,pth,15.60
2024-03-12T21:25:00,pth,9.60
2024-03-12T21:27:00,pth,14.40
2024-03-12T21:29:00,pth,15.60
2024-03-12T21:31:00,pth,15.60
2024-03-12T21:33:00,pth,10.80
2024-03-12T21:35:00,pth,13.20
2024-03-12T21:36:00,pth,7.20
2024-03-12T21:38:00,pth,15.60
2024-03-12T21:39:00,pth,8.40
2024-03-12T21:41:00,pth,7.20
2024-03-12T21:42:00,pth,7.20
2024-03-12T21:44:00,pth,16.80
2024-03-12T21:46:00,pth,14.40
2024-03-12T21:47:00,pth,3.60
2024-03-12T21:49:00,pth,6.00
2024-03-12T21:51:00,pth,10.80
2024-03-12T21:53:00,pth,20.40
2024-03-12T21:55:00,pth,20.40
2024-03-12T21:57:00,pth,19.20
2024-03-12T21:59:00,pth,18.00
2024-03-12T22:01:00,pth,7.20
2024-03-12T22:02:00,pth,2.40
2024-03-12T22:04:00,pth,8.40
2024-03-12T22:05:00,pth,8.40
2024-03-12T22:06:00,pth,8.40
2024-03-12T22:08:00,pth,15.60
2024-03-12T22:09:00,pth,8.40
2024-03-12T22:11:00,pth,13.20
2024-03-12T22:12:00,pth,2.40
2024-03-12T22:14:00,pth,4.80
2024-03-12T22:16:00,pth,4.80
2024-03-12T22:18:00,pth,4.80
2024-03-12T22:20:00,pth,4.80
2024-03-12T22:22:00,pth,6.00
2024-03-12T22:24:00,pth,4.80
2024-03-12T22:26:00,pth,6.00
2024-03-12T22:28:00,pth,6.00
2024-03-12T22:30:00,pth,6.00
2024-03-12T22:31:00,pth,3.60
2024-03-12T22:32:00,pth,2.40
2024-03-12T22:34:00,pth,6.00
2024-03-12T22:35:00,pth,3.60
2024-03-12T22:37:00,pth,6.00
2024-03-12T22:38:00,pth,2.40
2024-03-12T22:39:00,pth,2.40
2024-03-12T22:41:00,pth,4.80
2024-03-12T22:43:00,pth,4.80
2024-03-12T22:45:00,pth,6.00
2024-03-12T22:46:00,pth,2.40
2024-03-12T22:48:00,pth,4.80
2024-03-12T22:50:00,pth,4.80
2024-03-12T22:51:00,pth,2.40
2024-03-12T22:52:00,pth,2.40
2024-03-12T22:54:00,pth,6.00
2024-03-12T22:56:00,pth,4.80
2024-03-12T22:58:00,pth,6.00